Regional Weather Roundup
Issued by NWS

Home | Current Version | Previous Version | Graphics & Text | Print | Product List | Glossary On
Versions: 1 2 3 4 5 6 7 8 9 10 11 12 13 14 15 16 17 18 19 20 21 22 23 24 25 26 27 28 29 30 31 32 33 34 35 36 37 38 39 40 41 42 43 44 45 46 47 48 49 50
000
ASUS45 KBOI 280910
RWRID
WEATHER ROUNDUP FOR IDAHO
NATIONAL WEATHER SERVICE BOISE ID
200 AM MST WED JAN 28 2015

NOTE: "FAIR" INDICATES FEW OR NO CLOUDS BELOW 12000 FEET
WITH NO SIGNIFICANT WEATHER AND/OR OBSTRUCTIONS TO VISIBILITY

IDZ012-014-281000-
SOUTHWEST IDAHO


CITY           SKY/WX    TMP DP  RH WIND       PRES   REMARKS
BOISE          FOG       36  34  93 W3        30.22R VSB 3/4
CALDWELL       CLOUDY    34  28  80 CALM      30.25R VSB 1/4
MOUNTAIN HOME  CLOUDY    35  34  99 W6        30.20S FOG     WCI  29
$$

IDZ016-017-281000-
SOUTHCENTRAL IDAHO


CITY           SKY/WX    TMP DP  RH WIND       PRES   REMARKS
BURLEY         LGT RAIN  40  38  93 W9        30.16R WCI  34
JEROME         FOG       36  35  96 SW5       30.18R VSB 1/4 WCI  32
TWIN FALLS     CLOUDY    42  37  82 SW12      30.18R
$$

IDZ019>023-281000-
SOUTHEAST IDAHO


CITY           SKY/WX    TMP DP  RH WIND       PRES   REMARKS
IDAHO FALLS    LGT RAIN  37  36  96 SW12      30.14S FOG     WCI  29
POCATELLO      LGT RAIN  40  40 100 SW12      30.17R WCI  33
REXBURG        LGT RAIN  55  35  47 S6        30.12S
$$

IDZ006-010-011-018-031-032-281000-
CENTRAL IDAHO MOUNTAINS


CITY           SKY/WX    TMP DP  RH WIND       PRES   REMARKS
MCCALL         MOCLDY    30  28  92 CALM      30.16R
HAILEY         CLOUDY    34  34 100 CALM      30.15S
STANLEY          N/A     34  32  92 CALM      30.16R
SALMON         CLOUDY   N/A N/A N/A CALM      30.16S
CHALLIS        MIX PCPN  32  32 100 CALM      30.14R FOG
$$

IDZ002-004-006-007-026-281000-
NORTHERN IDAHO


CITY           SKY/WX    TMP DP  RH WIND       PRES   REMARKS
LEWISTON       PTCLDY    37  35  92 CALM      30.20R
LOWELL           N/A     35  33  92 CALM      30.23R
COEUR D`ALENE  CLOUDY    36  32  87 SW8       30.17R WCI  29
MULLAN PASS    PTCLDY    30  28  92 CALM      30.09R
$$


USA.gov is the U.S. government's official web portal to all federal, state and local government web resources and services.